Location: Lafig�re
(44.4503°N, 4.0357°E)
Time: 15:42:19
(UTC+00:00)

Transit 2A Rocket - Pass Details

Date: 30 January 2021
Orbit: 594 x 908 km, 66.7° (Epoch: 06 March)

Event Time Altitude Azimuth Distance (km) Brightness Sun altitude
Rises 11:47:14 0° 247° (WSW) 3,279 8.5 28.0°
Reaches altitude 10° 11:50:09 10° 260° (W) 2,294 7.7 28.0°
Maximum altitude 11:54:24 25° 315° (NW) 1,453 6.3 28.0°
Drops below altitude 10° 11:58:22 10° 10° (N) 2,134 6.9 28.0°
Sets 12:01:00 0° 24° (NNE) 3,001 7.6 28.0°
